Location: ?????
(44.4284°N, 135.2222°E)
Time: 22:31:28
(UTC+00:00)

DELTA 2 R/B (1) - Visible Passes

Search period start: 13 January 2026 00:00
Search period end: 23 January 2026 00:00
Orbit: 788 x 799 km, 39.6° (Epoch: 13 January)

Date Brightness Start Highest point End Pass type
(mag) Time Alt. Az. Time Alt. Az. Time Alt. Az.
13 Jan 5.5 09:14:24 10° S 09:16:52 13° SE 09:18:23 12° SE visible
13 Jan 5.6 10:57:16 10° SW 10:59:05 19° SSW 10:59:05 19° SSW visible
14 Jan 5.7 08:43:08 10° SSE 08:45:02 12° SE 08:46:56 10° ESE visible
14 Jan 4.9 10:25:28 10° SW 10:29:03 29° S 10:29:03 29° S visible
15 Jan 4.5 09:53:40 10° SW 09:58:30 31° SSE 09:58:58 31° SSE visible
15 Jan 6.2 11:38:57 10° WSW 11:39:40 14° WSW 11:39:40 14° WSW visible
16 Jan 4.7 09:21:53 10° SW 09:26:37 29° SSE 09:28:51 22° ESE visible
16 Jan 5.3 11:07:03 10° WSW 11:09:33 26° SW 11:09:33 26° SW visible
17 Jan 4.9 08:50:06 10° SSW 08:54:45 28° SSE 08:58:42 13° ESE visible
17 Jan 4.4 10:35:10 10° WSW 10:39:24 43° SSW 10:39:24 43° SSW visible
18 Jan 5.0 08:18:22 10° SSW 08:22:53 26° SSE 08:27:25 10° E visible
18 Jan 4.0 10:03:17 10° WSW 10:08:36 48° S 10:09:15 46° SSE visible
18 Jan 6.3 11:49:15 10° W 11:49:57 14° W 11:49:57 14° W visible
19 Jan 4.1 09:31:24 10° WSW 09:36:42 47° S 09:39:04 29° ESE visible
19 Jan 5.4 11:17:19 10° W 11:19:47 25° WSW 11:19:47 25° WSW visible
20 Jan 4.2 08:59:31 10° WSW 09:04:49 46° SSE 09:08:54 16° ESE visible
20 Jan 4.4 10:45:24 10° W 10:49:37 43° SW 10:49:37 43° SW visible
21 Jan 4.4 08:27:39 10° WSW 08:32:55 44° SSE 08:38:10 10° E visible
21 Jan 3.9 10:13:29 10° W 10:18:52 51° S 10:19:27 49° SSE visible
21 Jan 6.4 11:59:50 10° W 12:00:10 11° W 12:00:10 11° W visible
22 Jan 4.0 09:41:34 10° WSW 09:46:58 52° S 09:49:20 31° SE visible
22 Jan 5.7 11:27:52 10° W 11:30:02 21° WSW 11:30:02 21° WSW visible
